ATLAS CENTAUR 2 DEB

Satellite information

Favourite Embed

Satellite Type and Status

DEBRISIN ORBIT

Key statistics

Satellite ATLAS CENTAUR 2 DEB at a glance.

Uptime

22663

Days in orbit

Revolutions

≈ 13.3

Per day

Orbit

LEO

Low Earth Orbit

Inclination

29.9

Latest

Satellite identification and parameters

Extended collection of information and parameters for ATLAS CENTAUR 2 DEB.

Object identification

Identified? True

Debris? True

Object name: ATLAS CENTAUR 2 DEB

International designator: 1963-047K

Object number (NORAD): 2886

Object ID (CCSDS): 2886

Country: UNITED STATES OF AMERICA (US)

Current information (Y/N): Y

RCS size: SMALL

Orbital parameters

Period: 108.277 minutes

Inclination: 29.8761 deg

SMA: 7525.194 km

Apoapsis: 1631.118 km

Periapsis: 662.999 km

RAAN: 26.7485 deg

Eccentricy: 0.06432514

Argument of periapsis: 218.1993 deg

Mean anomaly: 137.1267 deg

Mean motion: 13.29922237 rev/day

Mean motion (dot): 0.00000399 rev/day2

B* drag term: 0.00021647409 1/REarth

Two-line elements (TLE)

Creation date: Dec. 11, 2025, 7:14 p.m.

Reference frame: TEME

Reference center: EARTH

Epoch: Dec. 11, 2025, 10:40 a.m. UTC

TLE line 0: 0 ATLAS CENTAUR 2 DEB

TLE line 1: 1 02886U 63047K 25345.44485266 .00000399 00000-0 21647-3 0 9996

TLE line 2: 2 02886 29.8761 26.7485 0643251 218.1993 137.1267 13.29922237851208

Live tracking on map

Real-time ground track for satellite ATLAS CENTAUR 2 DEB.

In-orbit conjunctions

A list of the most updated potential collisions computed for object ATLAS CENTAUR 2 DEB.

Target Orbit TCA Probability of collision Miss distance Type
COSMOS 2251 DEB LEO 2025-03-29 16:52:28 0.0005691106 180.0 (m) DEBRIS
CZ-6A DEB LEO 2025-02-15 16:09:20 0.0001252343 713.0 (m) DEBRIS
NOAA 16 DEB SSO 2024-11-23 19:23:44 0.0001605167 72.0 (m) DEBRIS

Associated space launch

Test flight of the cryogenic Centaur stage.

ATLAS CENTAUR 2 DEB was lifted into orbit during the mission ‘Atlas Centaur | AC-2 Instrumentation Ring’, on board a Atlas Centaur space rocket.

The launch took place on Nov. 27, 1963, 7:03 p.m. from Launch Complex 36A.

For more information about the launch, click the button.

Launch to space Atlas Centaur | AC-2 Instrumentation Ring
Atlas Centaur | AC-2 Instrumentation Ring

Agency: N/A

Status: Launch Successful

Launch date: Nov. 27, 1963, 7:03 p.m. UTC

Rocket: Atlas Centaur

Launch pad: Launch Complex 36A

Location: Cape Canaveral SFS, FL, USA

...

Latest news about this satellite

There are no fresh news available about this satellite. Check back as we update our databases every day.


Newsletter sign-up

Weekly statistics, charts and insights to help you stay on top of the space industry.